Location: Smoky Mountain Stargaze
(35.4252°N, 83.3329°W)
Time: 22:05:57
(UTC-04:00)

Amateur Radio Satellites - All Passes

Search period start: 27 April 2015 21:35
Search period end: 28 April 2015 21:35
Location: Smoky Mountain Stargaze, 35.4252°N, 83.3329°W

Satellite Date Start Highest point End Downlink Frequencies (MHz)
Time Altitude Azimuth
CINEMA 3 27 Apr 21:36:53 21:40:50 35° 72° (ENE) 21:44:59 145.822/145.860
DELFI C3 27 Apr 21:38:39 21:41:01 16° 69° (ENE) 21:43:32 145.870
O/OREOS (USA 219) 27 Apr 21:41:10 21:44:07 18° 102° (ESE) 21:47:14 437.305
UWE-3 27 Apr 21:43:27 21:46:16 18° 69° (ENE) 21:49:20 435.000/436.395/437.385
FUNcube-1 27 Apr 21:47:22 21:49:45 15° 68° (ENE) 21:52:21 145.935
PHONESAT 2.4 27 Apr 21:48:29 21:52:03 63° 18° (NNE) 21:55:37 2401.200-2431.200
HO-68 27 Apr 21:57:59 22:05:04 60° 258° (WSW) 22:12:11 435.675
SO-50 27 Apr 21:59:06 22:03:32 33° 247° (WSW) 22:07:50 436.795
SEEDS 27 Apr 22:04:39 22:08:49 52° 260° (W) 22:13:01 437.485
Oscar 11 27 Apr 22:05:47 22:09:57 46° 74° (ENE) 22:14:09 145.826/435.025
ZACube-1 27 Apr 22:12:13 22:15:57 29° 71° (ENE) 22:19:49 437.345
AAUSAT CUBESAT 2 27 Apr 22:16:12 22:20:20 55° 260° (W) 22:24:29 437.432
CANX-2 27 Apr 22:17:36 22:21:19 27° 265° (W) 22:24:59 2200.000
RS-15 27 Apr 22:21:38 22:30:59 29° 38° (NE) 22:40:59 29.354- 29.394
GOMX 1 27 Apr 22:22:46 22:25:53 20° 268° (W) 22:29:01 467.674
CUTE 1.7 + AOD 2 27 Apr 22:26:36 22:30:08 24° 265° (W) 22:33:36 437.475
VELOX 1 27 Apr 22:26:47 22:28:00 11° 66° (ENE) 22:29:29 145.980
VERMONT LUNAR 27 Apr 22:35:35 22:38:17 22° 214° (SW) 22:40:55 437.305
Cosmos 2491 27 Apr 22:38:38 22:46:17 37° 88° (E) 22:54:09 435.465 / 435.565
DX 1 27 Apr 22:43:29 22:47:31 40° 73° (ENE) 22:51:36 434.975-435.025
AISAT 27 Apr 22:43:43 22:46:42 19° 69° (ENE) 22:49:49 437.250
DOVE 4 27 Apr 22:48:32 22:51:16 16° 269° (W) 22:53:55 437.250
YUBILEINY 27 Apr 22:51:38 23:00:25 79° 82° (E) 23:09:07 435.215
CUBEBUG 2 27 Apr 22:57:02 23:01:17 52° 261° (W) 23:05:42 437.445
ANTELSAT 27 Apr 23:04:11 23:06:40 15° 90° (E) 23:09:22 437.575/2403.000
DELFI C3 27 Apr 23:12:08 23:15:54 34° 263° (W) 23:19:38 145.870
COMPASS 1 27 Apr 23:15:00 23:15:45 10° 271° (W) 23:16:11 437.405
CINEMA 3 27 Apr 23:15:19 23:18:15 17° 269° (W) 23:21:05 145.822/145.860
UWE-3 27 Apr 23:18:31 23:22:32 36° 263° (W) 23:26:40 435.000/436.395/437.385
O/OREOS (USA 219) 27 Apr 23:19:02 23:23:17 36° 295° (WNW) 23:27:31 437.305
FUNcube-1 27 Apr 23:21:36 23:25:44 43° 262° (W) 23:29:58 145.935
UKube-1 27 Apr 23:22:55 23:27:14 71° 258° (WSW) 23:31:32 .
HUMSAT D 27 Apr 23:23:47 23:28:00 87° 257° (WSW) 23:32:19 437.325/437.525
PHONESAT 2.4 27 Apr 23:27:02 23:30:09 28° 213° (SSW) 23:33:14 2401.200-2431.200
NANOSAT C BR1 27 Apr 23:27:41 23:28:21 10° 90° (E) 23:29:18 145.865
ESTCUBE 1 27 Apr 23:29:46 23:33:44 32° 72° (ENE) 23:37:46 437.505/2401.250
POPSAT HIP 1 27 Apr 23:31:09 23:32:42 12° 90° (E) 23:34:31 437.405
BUGSAT 1 27 Apr 23:43:41 23:44:35 11° 90° (E) 23:45:47 437.445
Oscar 11 27 Apr 23:44:24 23:46:26 13° 270° (W) 23:48:14 145.826/435.025
50 SAT 27 Apr 23:47:50 23:51:48 72° 259° (W) 23:55:51 437.505
ZACube-1 27 Apr 23:49:00 23:52:21 21° 267° (W) 23:55:39 437.345
TIGRISAT 27 Apr 23:51:38 23:56:12 49° 99° (E) 00:00:40 435.000
UNISAT 6 27 Apr 23:56:59 00:01:37 59° 100° (E) 00:06:10 437.425
CUBEBUG 1 27 Apr 23:58:14 00:02:28 58° 75° (ENE) 00:06:44 437.445
DUCHIFAT 1 27 Apr 23:58:23 00:01:55 25° 95° (E) 00:05:31 145.980
Cosmos 2504 27 Apr 23:58:46 00:03:23 17° 64° (ENE) 00:08:16 435.465 / 435.565
VELOX 1 27 Apr 23:59:48 00:04:08 58° 260° (W) 00:08:28 145.980
POLYITAN 1 28 Apr 00:00:14 00:03:57 28° 96° (E) 00:07:43 437.675
QB50P1 28 Apr 00:17:02 00:21:09 44° 99° (E) 00:25:16 145.935-145.965
AISAT 28 Apr 00:19:05 00:23:05 33° 263° (W) 00:27:03 437.250
DX 1 28 Apr 00:21:32 00:24:00 14° 268° (W) 00:26:16 434.975-435.025
AIST 1 28 Apr 00:21:36 00:24:14 17° 89° (E) 00:27:02
TISAT 1 28 Apr 00:30:23 00:33:47 25° 71° (ENE) 00:37:17 437.305
RS-15 28 Apr 00:33:24 00:45:07 87° 240° (WSW) 00:57:17 29.354- 29.394
Cosmos 2491 28 Apr 00:34:53 00:43:04 42° 285° (WNW) 00:51:12 435.465 / 435.565
ANTELSAT 28 Apr 00:39:15 00:43:46 46° 286° (WNW) 00:48:10 437.575/2403.000
QB50P2 28 Apr 00:43:52 00:48:12 84° 284° (WNW) 00:52:30 145.880/145.840
JUGNU 28 Apr 00:44:13 00:46:52 13° 169° (S) 00:49:36 437.505
YUBILEINY 28 Apr 00:50:49 00:56:22 18° 278° (W) 01:01:21 435.215
NANOSAT C BR1 28 Apr 01:00:24 01:04:35 54° 285° (WNW) 01:08:45 145.865
POPSAT HIP 1 28 Apr 01:04:45 01:08:54 48° 286° (WNW) 01:13:03 437.405
ESTCUBE 1 28 Apr 01:07:19 01:10:41 20° 266° (W) 01:13:56 437.505/2401.250
SPROUT 28 Apr 01:09:18 01:13:34 83° 257° (WSW) 01:17:52 437.525
BUGSAT 1 28 Apr 01:16:21 01:20:24 50° 285° (WNW) 01:24:29 437.445
TIGRISAT 28 Apr 01:29:50 01:32:32 15° 293° (WNW) 01:35:01 435.000
DUCHIFAT 1 28 Apr 01:34:14 01:37:39 23° 289° (WNW) 01:40:58 145.980
UNISAT 6 28 Apr 01:35:47 01:37:55 13° 294° (WNW) 01:39:48 437.425
POLYITAN 1 28 Apr 01:36:25 01:39:43 21° 290° (WNW) 01:42:55 437.675
ITUPSAT 1 28 Apr 01:44:36 01:48:36 28° 70° (ENE) 01:52:41 437.325
Cosmos 2504 28 Apr 01:50:02 01:57:56 76° 266° (W) 02:05:15 435.465 / 435.565
QB50P1 28 Apr 01:54:22 01:56:41 14° 292° (WNW) 01:58:48 145.935-145.965
AIST 1 28 Apr 01:57:49 02:01:40 31° 282° (WNW) 02:05:29
TISAT 1 28 Apr 02:06:16 02:09:33 22° 266° (W) 02:12:45 437.305
BEESAT 28 Apr 02:13:02 02:17:43 57° 74° (ENE) 02:22:25 436.000
SWISSCUBE 28 Apr 02:15:55 02:20:40 68° 76° (ENE) 02:25:26 437.505
AIST 2 28 Apr 02:28:04 02:28:07 10° 108° (ESE) 02:28:26 435.215
JUGNU 28 Apr 02:31:23 02:35:10 17° 179° (S) 02:38:57 437.505
BEESAT 3 28 Apr 02:41:10 02:45:12 68° 117° (ESE) 02:49:18 437.485
BEESAT 2 28 Apr 02:45:51 02:49:53 62° 117° (ESE) 02:53:59 435.950
SRMSAT 28 Apr 02:46:27 02:49:29 14° 171° (S) 02:52:33 437.500
RS-15 28 Apr 02:48:37 02:56:27 19° 257° (WSW) 03:03:31 29.354- 29.394
Gurwin Techsat 1B 28 Apr 02:51:40 02:54:21 14° 90° (E) 02:57:21 435.225
Oscar 19 28 Apr 03:04:22 03:09:35 83° 102° (ESE) 03:14:47 437.125/150
KKS-1 28 Apr 03:04:54 03:08:52 34° 72° (ENE) 03:12:54 437.445
GONETS M04 28 Apr 03:15:31 03:22:23 26° 69° (ENE) 03:29:32
ITUPSAT 1 28 Apr 03:22:25 03:26:27 26° 264° (W) 03:30:26 437.325
CUSAT 1 28 Apr 03:41:03 03:47:26 27° 70° (ENE) 03:54:21 437.405
ITAMSAT 1 28 Apr 03:44:42 03:49:49 58° 101° (E) 03:54:56 435.822/435.867
STARS 28 Apr 03:52:50 03:57:12 76° 76° (ENE) 04:01:36 437.465
BEESAT 28 Apr 03:53:54 03:56:00 12° 270° (W) 03:57:48 436.000
SWISSCUBE 28 Apr 03:58:26 03:59:05 10° 271° (W) 03:59:21 437.505
AIST 2 28 Apr 04:02:02 04:06:14 62° 301° (WNW) 04:10:29 435.215
JUGNU 28 Apr 04:20:17 04:23:29 15° 189° (S) 04:26:36 437.505
BEESAT 3 28 Apr 04:22:15 04:23:44 11° 315° (NW) 04:25:02 437.485
BEESAT 2 28 Apr 04:26:36 04:28:27 12° 314° (NW) 04:30:09 435.950
Gurwin Techsat 1B 28 Apr 04:29:34 04:34:48 58° 286° (WNW) 04:39:59 435.225
SRMSAT 28 Apr 04:34:10 04:37:56 17° 181° (S) 04:41:41 437.500
DANDE 28 Apr 04:36:23 04:44:02 53° 77° (ENE) 04:52:25 436.750
KKS-1 28 Apr 04:42:30 04:45:38 18° 267° (W) 04:48:37 437.445
Oscar 19 28 Apr 04:46:55 04:48:19 11° 297° (WNW) 04:49:24 437.125/150
AO-7 28 Apr 05:00:28 05:08:08 41° 99° (E) 05:15:55 29.400- 29.500
GONETS M04 28 Apr 05:11:13 05:19:55 62° 268° (W) 05:28:30
HORYU 2 28 Apr 05:20:31 05:25:02 82° 284° (WNW) 05:29:29 437.375
CUSAT 1 28 Apr 05:22:46 05:30:39 64° 265° (W) 05:38:47 437.405
ITAMSAT 1 28 Apr 05:25:52 05:28:53 15° 294° (WNW) 05:31:41 435.822/435.867
MOZHAYETS 4 28 Apr 05:26:24 05:31:02 78° 76° (ENE) 05:35:42
JAS-2 28 Apr 05:34:45 05:40:53 77° 101° (ESE) 05:46:20 435.910
AUBIESAT-1 28 Apr 06:02:04 06:05:30 21° 64° (ENE) 06:09:04 437.475
Cosmos 2499 28 Apr 06:03:31 06:10:53 50° 77° (ENE) 06:17:49 435.465 / 435.565
DANDE 28 Apr 06:20:10 06:27:07 32° 270° (W) 06:34:18 436.750
SRMSAT 28 Apr 06:23:37 06:26:22 13° 191° (S) 06:29:04 437.500
PRISM 28 Apr 06:35:31 06:38:08 17° 69° (ENE) 06:40:53 437.425
STRAND 1 28 Apr 06:45:35 06:49:13 21° 68° (ENE) 06:53:00 437.568
AO-7 28 Apr 06:53:17 07:00:56 41° 295° (WNW) 07:08:29 29.400- 29.500
CUTE-I 28 Apr 06:54:59 06:58:49 21° 93° (E) 07:02:50 437.470
M-CUBED/EXP-1 PRIME 28 Apr 06:55:18 07:00:06 84° 72° (ENE) 07:04:57 437.505
Cubesat XI-IV 28 Apr 07:05:02 07:09:25 26° 95° (E) 07:13:54 437.490
CUBESAT XI-V 28 Apr 07:10:30 07:15:07 76° 77° (ENE) 07:19:45 437.345
CUSAT 1 28 Apr 07:11:32 07:12:27 10° 278° (W) 07:12:34 437.405
JAS-2 28 Apr 07:22:12 07:25:08 13° 300° (WNW) 07:27:37 435.910
AUBIESAT-1 28 Apr 07:35:29 07:39:59 41° 258° (WSW) 07:44:30 437.475
O/OREOS (USA 219) 28 Apr 07:53:18 07:56:40 21° 60° (ENE) 08:00:06 437.305
Cosmos 2499 28 Apr 07:57:38 08:03:34 25° 275° (W) 08:08:59 435.465 / 435.565
PRISM 28 Apr 08:09:35 08:13:22 33° 262° (W) 08:17:08 437.425
PCSat 28 Apr 08:11:07 08:16:22 56° 113° (ESE) 08:21:41 145.827
STRAND 1 28 Apr 08:23:22 08:28:11 40° 262° (W) 08:32:58 437.568
CUTE-I 28 Apr 08:34:07 08:39:06 42° 288° (WNW) 08:44:04 437.470
Cubesat XI-IV 28 Apr 08:44:49 08:49:34 33° 290° (WNW) 08:54:14 437.490
GOMX 1 28 Apr 08:49:17 08:51:52 14° 90° (E) 08:54:48 467.674
Cosmos 2491 28 Apr 08:54:19 08:58:33 15° 62° (ENE) 09:03:28 435.465 / 435.565
DOVE 4 28 Apr 09:12:00 09:14:59 16° 90° (E) 09:18:15 437.250
BRITE-PL 28 Apr 09:14:11 09:19:07 40° 97° (E) 09:24:21 437.365/2234.400
COMPASS 1 28 Apr 09:24:51 09:25:42 11° 89° (E) 09:26:50 437.405
HO-68 28 Apr 09:29:30 09:35:41 32° 96° (E) 09:41:58 435.675
O/OREOS (USA 219) 28 Apr 09:32:11 09:36:09 30° 256° (WSW) 09:40:01 437.305
CINEMA 3 28 Apr 09:36:17 09:38:25 13° 89° (E) 09:40:51 145.822/145.860
SEEDS 28 Apr 09:52:24 09:56:09 31° 96° (E) 09:59:54 437.485
YUBILEINY 28 Apr 09:56:04 10:00:57 17° 82° (E) 10:06:26 435.215
PCSat 28 Apr 09:56:17 10:00:13 19° 310° (NW) 10:04:00 145.827
Oscar 11 28 Apr 09:59:00 09:59:45 11° 89° (E) 10:00:48 145.826/435.025
AAUSAT CUBESAT 2 28 Apr 10:02:43 10:06:17 28° 96° (E) 10:09:53 437.432
CANX-2 28 Apr 10:05:20 10:09:35 63° 100° (E) 10:13:46 2200.000
CUTE 1.7 + AOD 2 28 Apr 10:14:00 10:18:16 72° 101° (E) 10:22:30 437.475
GOMX 1 28 Apr 10:25:11 10:30:23 64° 285° (WNW) 10:35:47 467.674
SO-50 28 Apr 10:31:44 10:34:26 16° 109° (ESE) 10:37:23 436.795
ISS 28 Apr 10:40:54 10:43:34 24° 131° (SE) 10:46:17 145.825
TIGRISAT 28 Apr 10:47:33 10:51:28 30° 71° (ENE) 10:55:32 435.000
DOVE 4 28 Apr 10:47:58 10:53:03 55° 285° (WNW) 10:58:14 437.250
Cosmos 2491 28 Apr 10:48:08 10:57:02 85° 84° (E) 11:05:53 435.465 / 435.565
DUCHIFAT 1 28 Apr 10:49:27 10:51:24 13° 68° (ENE) 10:53:35 145.980
CUBEBUG 2 28 Apr 10:51:07 10:55:38 42° 97° (E) 11:00:08 437.445
POLYITAN 1 28 Apr 10:51:39 10:54:00 15° 68° (ENE) 10:56:33 437.675
UNISAT 6 28 Apr 10:52:58 10:57:05 36° 72° (ENE) 11:01:21 437.425
BRITE-PL 28 Apr 10:53:15 10:57:27 24° 290° (WNW) 11:01:41 437.365/2234.400
DELFI C3 28 Apr 10:54:30 10:58:14 36° 97° (E) 11:01:58 145.870
COMPASS 1 28 Apr 10:57:41 11:01:46 49° 285° (WNW) 11:05:47 437.405
BEESAT 3 28 Apr 11:03:44 11:06:28 17° 49° (NE) 11:09:16 437.485
QB50P1 28 Apr 11:07:29 11:10:43 23° 71° (ENE) 11:14:05 145.935-145.965
BEESAT 2 28 Apr 11:09:00 11:11:37 17° 48° (NE) 11:14:20 435.950
UWE-3 28 Apr 11:11:02 11:15:40 57° 99° (E) 11:20:14 435.000/436.395/437.385
CINEMA 3 28 Apr 11:11:05 11:16:02 61° 285° (WNW) 11:20:59 145.822/145.860
HUMSAT D 28 Apr 11:11:58 11:15:03 20° 93° (E) 11:18:14 437.325/437.525
FUNcube-1 28 Apr 11:12:55 11:17:20 45° 98° (E) 11:21:41 145.935
UKube-1 28 Apr 11:14:07 11:17:34 23° 95° (E) 11:21:06 .
HO-68 28 Apr 11:16:49 11:23:33 44° 292° (WNW) 11:30:10 435.675
SEEDS 28 Apr 11:28:47 11:31:45 18° 290° (WNW) 11:34:35 437.485
50 SAT 28 Apr 11:29:05 11:31:42 17° 93° (E) 11:34:25 437.505
Oscar 11 28 Apr 11:32:06 11:36:21 54° 285° (WNW) 11:40:34 145.826/435.025
QB50P2 28 Apr 11:33:46 11:37:49 47° 74° (ENE) 11:41:55 145.880/145.840
ANTELSAT 28 Apr 11:34:40 11:39:11 76° 257° (WSW) 11:43:51 437.575/2403.000
AAUSAT CUBESAT 2 28 Apr 11:38:40 11:41:45 20° 290° (WNW) 11:44:43 437.432
ZACube-1 28 Apr 11:39:23 11:44:01 86° 287° (WNW) 11:48:34 437.345
YUBILEINY 28 Apr 11:48:02 11:56:53 82° 278° (W) 12:05:45 435.215
NANOSAT C BR1 28 Apr 11:49:39 11:53:49 73° 77° (ENE) 11:58:03 145.865
CUBEBUG 1 28 Apr 11:51:44 11:53:53 14° 91° (E) 11:56:17 437.445
VELOX 1 28 Apr 11:53:33 11:57:31 32° 97° (E) 12:01:33 145.980
POPSAT HIP 1 28 Apr 11:54:11 11:58:23 84° 78° (ENE) 12:02:39 437.405
BUGSAT 1 28 Apr 12:03:15 12:07:15 72° 77° (ENE) 12:11:16 437.445
AIST 1 28 Apr 12:07:37 12:11:41 42° 79° (E) 12:15:45
SO-50 28 Apr 12:10:06 12:14:35 48° 304° (NW) 12:19:14 436.795
DX 1 28 Apr 12:10:35 12:14:56 67° 285° (WNW) 12:19:16 434.975-435.025
AISAT 28 Apr 12:12:19 12:16:43 56° 100° (E) 12:21:08 437.250
ISS 28 Apr 12:17:02 12:19:52 27° 326° (NW) 12:22:42 145.825
DUCHIFAT 1 28 Apr 12:22:53 12:26:53 43° 261° (W) 12:30:55 145.980
TIGRISAT 28 Apr 12:24:42 12:28:15 22° 267° (W) 12:31:46 435.000
POLYITAN 1 28 Apr 12:25:40 12:29:38 38° 262° (W) 12:33:36 437.675
AIST 2 28 Apr 12:26:53 12:30:43 33° 54° (NE) 12:34:31 435.215
CUBEBUG 2 28 Apr 12:28:46 12:32:01 18° 292° (WNW) 12:35:06 437.445
UNISAT 6 28 Apr 12:30:47 12:34:01 18° 268° (W) 12:37:09 437.425
DELFI C3 28 Apr 12:30:50 12:33:06 14° 291° (WNW) 12:35:11 145.870
Cosmos 2504 28 Apr 12:33:28 12:38:29 18° 82° (E) 12:44:04 435.465 / 435.565
BEESAT 3 28 Apr 12:40:51 12:44:39 37° 246° (WSW) 12:48:22 437.485
QB50P1 28 Apr 12:43:01 12:46:31 25° 265° (W) 12:49:58 145.935-145.965
BEESAT 2 28 Apr 12:46:04 12:49:57 41° 245° (WSW) 12:53:45 435.950
HUMSAT D 28 Apr 12:47:03 12:50:52 30° 288° (WNW) 12:54:34 437.325/437.525
RS-15 28 Apr 12:47:07 12:52:27 16° 102° (ESE) 12:58:43 29.354- 29.394
Cosmos 2491 28 Apr 12:47:39 12:52:56 17° 279° (W) 12:57:38 435.465 / 435.565
UWE-3 28 Apr 12:49:27 12:51:45 13° 293° (WNW) 12:53:47 435.000/436.395/437.385
UKube-1 28 Apr 12:50:03 12:53:40 25° 289° (WNW) 12:57:11 .
FUNcube-1 28 Apr 12:50:31 12:53:18 16° 292° (WNW) 12:55:53 145.935
SPROUT 28 Apr 12:59:46 13:03:04 22° 94° (E) 13:06:28 437.525
ESTCUBE 1 28 Apr 13:01:38 13:06:07 75° 284° (WNW) 13:10:35 437.505/2401.250
50 SAT 28 Apr 13:03:02 13:06:34 29° 288° (WNW) 13:10:01 437.505
QB50P2 28 Apr 13:12:28 13:14:03 11° 270° (W) 13:15:22 145.880/145.840
CUBEBUG 1 28 Apr 13:26:21 13:30:30 43° 286° (WNW) 13:34:39 437.445
VELOX 1 28 Apr 13:30:38 13:33:54 20° 291° (WNW) 13:37:03 145.980
AIST 1 28 Apr 13:47:09 13:48:59 12° 272° (W) 13:50:36
YUBILEINY 28 Apr 13:50:43 13:55:22 14° 298° (WNW) 13:59:20 435.215
AISAT 28 Apr 13:51:02 13:52:53 12° 294° (WNW) 13:54:30 437.250
TISAT 1 28 Apr 13:52:39 13:56:55 72° 101° (ESE) 14:01:10 437.305
AIST 2 28 Apr 14:06:04 14:09:05 19° 249° (WSW) 14:11:57 435.215
Gurwin Techsat 1B 28 Apr 14:09:45 14:13:11 18° 67° (ENE) 14:16:50 435.225
BEESAT 28 Apr 14:17:25 14:20:39 19° 93° (E) 14:24:02 436.000
Oscar 19 28 Apr 14:18:02 14:23:11 87° 81° (E) 14:28:25 437.125/150
SWISSCUBE 28 Apr 14:20:10 14:23:46 22° 94° (E) 14:27:29 437.505
Cosmos 2504 28 Apr 14:22:09 14:31:04 84° 277° (W) 14:39:52 435.465 / 435.565
SPROUT 28 Apr 14:35:27 14:39:09 27° 289° (WNW) 14:42:47 437.525
RS-15 28 Apr 14:52:34 15:03:27 84° 117° (ESE) 15:14:33 29.354- 29.394
ITAMSAT 1 28 Apr 14:59:37 15:04:44 65° 75° (ENE) 15:09:53 435.822/435.867
VERMONT LUNAR 28 Apr 15:13:05 15:15:59 28° 148° (SSE) 15:18:57 437.305
ITUPSAT 1 28 Apr 15:25:08 15:29:55 80° 284° (WNW) 15:34:39 437.325
JAS-2 28 Apr 15:41:59 15:48:24 30° 67° (ENE) 15:54:48 435.910
STARS 28 Apr 15:46:44 15:49:41 18° 93° (E) 15:52:48 437.465
Gurwin Techsat 1B 28 Apr 15:47:41 15:52:49 50° 260° (W) 15:57:59 435.225
BEESAT 28 Apr 15:54:15 15:58:40 38° 288° (WNW) 16:03:01 436.000
AO-7 28 Apr 15:56:12 16:03:47 43° 65° (ENE) 16:11:28 29.400- 29.500
SWISSCUBE 28 Apr 15:57:27 16:01:42 32° 289° (WNW) 16:05:52 437.505
PHONESAT 2.4 28 Apr 16:12:45 16:15:51 28° 148° (SSE) 16:19:00 2401.200-2431.200
GONETS M04 28 Apr 16:12:46 16:20:04 32° 86° (E) 16:27:40
HORYU 2 28 Apr 16:15:33 16:19:58 62° 75° (ENE) 16:24:26 437.375
Cosmos 2504 28 Apr 16:20:47 16:25:56 15° 297° (WNW) 16:30:25 435.465 / 435.565
KKS-1 28 Apr 16:34:59 16:39:29 75° 283° (WNW) 16:43:57 437.445
ITAMSAT 1 28 Apr 16:42:33 16:44:47 12° 270° (W) 16:46:39 435.822/435.867
CUSAT 1 28 Apr 16:48:24 16:50:29 15° 83° (E) 16:53:04 437.405
VERMONT LUNAR 28 Apr 16:50:00 16:53:20 59° 343° (NNW) 16:56:40 437.305
PCSat 28 Apr 17:02:34 17:06:55 25° 52° (NE) 17:11:22 145.827
RS-15 28 Apr 17:08:17 17:17:24 28° 322° (NW) 17:26:25 29.354- 29.394
ISS 28 Apr 17:11:15 17:12:40 12° 25° (NNE) 17:14:11 145.825
STARS 28 Apr 17:22:13 17:26:17 35° 288° (WNW) 17:30:17 437.465
JAS-2 28 Apr 17:25:24 17:33:05 55° 261° (W) 17:40:32 435.910
MOZHAYETS 4 28 Apr 17:25:25 17:28:59 23° 94° (E) 17:32:39
DANDE 28 Apr 17:47:18 17:50:33 51° 94° (E) 17:54:53 436.750
AO-7 28 Apr 17:49:02 17:56:38 38° 262° (W) 18:04:09 29.400- 29.500
PHONESAT 2.4 28 Apr 17:50:24 17:53:57 62° 342° (NNW) 17:57:31 2401.200-2431.200
GONETS M04 28 Apr 18:08:13 18:16:39 49° 283° (WNW) 18:25:05
CUTE-I 28 Apr 18:13:55 18:18:11 26° 69° (ENE) 18:22:35 437.470
Cubesat XI-IV 28 Apr 18:24:06 18:28:46 33° 70° (ENE) 18:33:31 437.490
VERMONT LUNAR 28 Apr 18:28:01 18:31:07 32° 359° (N) 18:34:13 437.305
CUSAT 1 28 Apr 18:29:17 18:32:39 30° 289° (WNW) 18:36:57 437.405
Cosmos 2499 28 Apr 18:34:24 18:42:43 49° 90° (E) 18:50:56 435.465 / 435.565
PCSat 28 Apr 18:45:25 18:50:31 41° 249° (WSW) 18:55:32 145.827
ISS 28 Apr 18:46:13 18:49:28 87° 39° (NE) 18:52:43 145.825
MOZHAYETS 4 28 Apr 19:02:16 19:06:14 28° 288° (WNW) 19:10:05
CUBESAT XI-V 28 Apr 19:10:56 19:14:35 24° 94° (E) 19:18:21 437.345
AUBIESAT-1 28 Apr 19:21:10 19:23:47 18° 96° (E) 19:26:24 437.475
PHONESAT 2.4 28 Apr 19:29:12 19:32:31 34° 359° (N) 19:35:51 2401.200-2431.200
RS-15 28 Apr 19:31:10 19:35:27 12° 357° (N) 19:39:44 29.354- 29.394
CUTE-I 28 Apr 19:53:19 19:58:09 34° 263° (W) 20:02:55 437.470
PRISM 28 Apr 19:54:45 19:58:35 39° 98° (E) 20:02:26 437.425
HO-68 28 Apr 19:56:45 20:01:07 18° 60° (ENE) 20:05:49 435.675
Cubesat XI-IV 28 Apr 20:04:26 20:08:55 26° 265° (W) 20:13:18 437.490
VERMONT LUNAR 28 Apr 20:05:37 20:08:56 52° 16° (NNE) 20:12:15 437.305
M-CUBED/EXP-1 PRIME 28 Apr 20:15:36 20:19:38 71° 289° (WNW) 20:23:18 437.505
BRITE-PL 28 Apr 20:23:29 20:26:54 26° 71° (ENE) 20:30:31 437.365/2234.400
Cosmos 2499 28 Apr 20:28:11 20:36:06 34° 287° (WNW) 20:43:39 435.465 / 435.565
STRAND 1 28 Apr 20:36:33 20:41:41 86° 107° (ESE) 20:46:48 437.568
SEEDS 28 Apr 20:42:37 20:45:10 16° 69° (ENE) 20:47:53 437.485
SO-50 28 Apr 20:44:14 20:49:10 66° 58° (ENE) 20:54:02 436.795
CUBESAT XI-V 28 Apr 20:48:04 20:52:02 28° 288° (WNW) 20:55:56 437.345
AAUSAT CUBESAT 2 28 Apr 20:52:02 20:54:08 14° 69° (ENE) 20:56:25 437.432
AUBIESAT-1 28 Apr 20:55:19 20:58:41 26° 295° (WNW) 21:01:46 437.475
CANX-2 28 Apr 20:55:28 20:59:13 30° 73° (ENE) 21:03:02 2200.000
CUTE 1.7 + AOD 2 28 Apr 21:03:57 21:07:49 34° 73° (ENE) 21:11:45 437.475
PHONESAT 2.4 28 Apr 21:07:36 21:11:08 54° 15° (NNE) 21:14:40 2401.200-2431.200
PRISM 28 Apr 21:31:31 21:33:46 14° 292° (WNW) 21:35:49 437.425
